When you browse on this site, cookies collect data to enhance your experience and personalize the content and advertising you see.
Visit our Privacy Policy to learn more. By continuing to use the site, you agree to this use of cookies and data.
  • In Deutschland
  • Länderverzeichnis
  • Für 7 Tage
  • Wassertemperatur
  • Wetterkarte
  • Widgets
  • user-avatar
    Anmelden

    Stündliche Wetter Sylchet

    Heute, 21 November, Donnerstag

    Zeit Temperatur Niederschläge Wind Luftdruck Luftfeuchtigkeit
    00:00 +22°C° 0 mm 1 m/S 760 mmHg 78%
    01:00 +21°C° 0 mm 1 m/S 760 mmHg 80%
    02:00 +21°C° 0 mm 1 m/S 759 mmHg 82%
    03:00 +21°C° 0 mm 1 m/S 759 mmHg 84%
    04:00 +20°C° 0 mm 1 m/S 759 mmHg 86%
    05:00 +20°C° 0 mm 1 m/S 760 mmHg 88%
    06:00 +20°C° 0 mm 1 m/S 760 mmHg 93%
    07:00 +22°C° 0 mm 1 m/S 760 mmHg 87%
    08:00 +23°C° 0 mm 1 m/S 761 mmHg 82%
    09:00 +25°C° 0 mm 2 m/S 761 mmHg 76%
    10:00 +27°C° 0 mm 1 m/S 760 mmHg 70%
    11:00 +28°C° 0 mm 1 m/S 760 mmHg 63%
    12:00 +30°C° 0 mm 1 m/S 760 mmHg 56%
    13:00 +30°C° 0 mm 1 m/S 759 mmHg 54%
    14:00 +30°C° 0 mm 1 m/S 758 mmHg 51%
    15:00 +30°C° 0 mm 1 m/S 758 mmHg 49%
    16:00 +28°C° 0 mm 1 m/S 758 mmHg 54%
    17:00 +27°C° 0 mm 1 m/S 758 mmHg 59%
    18:00 +23°C° 0 mm 0 m/S 759 mmHg 64%
    19:00 +24°C° 0 mm 1 m/S 759 mmHg 67%
    20:00 +24°C° 0 mm 1 m/S 760 mmHg 69%
    21:00 +23°C° 0 mm 1 m/S 761 mmHg 72%
    22:00 +22°C° 0 mm 1 m/S 761 mmHg 74%
    23:00 +22°C° 0 mm 1 m/S 760 mmHg 75%

    Morgen, 22 November, Freitag

    Zeit Temperatur Niederschläge Wind Luftdruck Luftfeuchtigkeit
    00:00 +22°C° 0 mm 1 m/S 760 mmHg 77%
    01:00 +21°C° 0 mm 1 m/S 760 mmHg 80%
    02:00 +21°C° 0 mm 1 m/S 760 mmHg 82%
    03:00 +20°C° 0 mm 1 m/S 760 mmHg 84%
    04:00 +20°C° 0 mm 1 m/S 760 mmHg 86%
    05:00 +20°C° 0 mm 1 m/S 760 mmHg 88%
    06:00 +18°C° 0 mm 2 m/S 760 mmHg 90%
    07:00 +20°C° 0 mm 2 m/S 760 mmHg 84%
    08:00 +23°C° 0 mm 2 m/S 761 mmHg 78%
    09:00 +24°C° 0 mm 2 m/S 761 mmHg 72%
    10:00 +26°C° 0 mm 1 m/S 761 mmHg 65%
    11:00 +28°C° 0 mm 1 m/S 760 mmHg 58%
    12:00 +28°C° 0 mm 0 m/S 760 mmHg 51%
    13:00 +28°C° 0 mm 0 m/S 759 mmHg 49%
    14:00 +28°C° 0 mm 0 m/S 758 mmHg 46%
    15:00 +28°C° 0 mm 0 m/S 758 mmHg 44%
    16:00 +26°C° 0 mm 0 m/S 758 mmHg 49%
    17:00 +24°C° 0 mm 0 m/S 758 mmHg 55%
    18:00 +24°C° 0 mm 1 m/S 758 mmHg 61%
    19:00 +24°C° 0 mm 1 m/S 759 mmHg 64%
    20:00 +23°C° 0 mm 1 m/S 760 mmHg 66%
    21:00 +22°C° 0 mm 1 m/S 760 mmHg 68%
    22:00 +22°C° 0 mm 1 m/S 760 mmHg 70%
    23:00 +21°C° 0 mm 1 m/S 760 mmHg 72%

    übermorgen, 23 November, Samstag

    Zeit Temperatur Niederschläge Wind Luftdruck Luftfeuchtigkeit
    00:00 +21°C° 0 mm 1 m/S 760 mmHg 74%
    01:00 +21°C° 0 mm 1 m/S 759 mmHg 76%
    02:00 +20°C° 0 mm 1 m/S 759 mmHg 78%
    03:00 +20°C° 0 mm 1 m/S 759 mmHg 81%
    04:00 +19°C° 0 mm 1 m/S 759 mmHg 82%
    05:00 +19°C° 0 mm 1 m/S 759 mmHg 84%
    06:00 +19°C° 0 mm 1 m/S 759 mmHg 86%
    07:00 +21°C° 0 mm 1 m/S 760 mmHg 80%
    08:00 +22°C° 0 mm 1 m/S 760 mmHg 75%
    09:00 +24°C° 0 mm 1 m/S 761 mmHg 69%
    10:00 +26°C° 0 mm 1 m/S 760 mmHg 63%
    11:00 +28°C° 0 mm 1 m/S 759 mmHg 57%
    12:00 +29°C° 0 mm 1 m/S 759 mmHg 50%
    13:00 +27°C° 0 mm 0 m/S 758 mmHg 48%
    14:00 +27°C° 0 mm 0 m/S 758 mmHg 46%
    15:00 +28°C° 0 mm 0 m/S 757 mmHg 44%
    16:00 +26°C° 0 mm 0 m/S 757 mmHg 49%
    17:00 +26°C° 0 mm 1 m/S 758 mmHg 55%
    18:00 +24°C° 0 mm 1 m/S 758 mmHg 61%
    19:00 +24°C° 0 mm 1 m/S 758 mmHg 63%
    20:00 +23°C° 0 mm 1 m/S 759 mmHg 66%
    21:00 +20°C° 0 mm 0 m/S 759 mmHg 69%
    22:00 +22°C° 0 mm 1 m/S 759 mmHg 71%
    23:00 +21°C° 0 mm 1 m/S 759 mmHg 73%

    24 November, Sonntag

    Zeit Temperatur Niederschläge Wind Luftdruck Luftfeuchtigkeit
    00:00 +21°C° 0 mm 1 m/S 759 mmHg 75%
    01:00 +21°C° 0 mm 1 m/S 759 mmHg 77%
    02:00 +20°C° 0 mm 1 m/S 758 mmHg 79%
    03:00 +20°C° 0 mm 1 m/S 758 mmHg 81%
    04:00 +19°C° 0 mm 1 m/S 758 mmHg 83%
    05:00 +19°C° 0 mm 1 m/S 759 mmHg 85%
    06:00 +19°C° 0 mm 1 m/S 759 mmHg 87%
    07:00 +21°C° 0 mm 1 m/S 759 mmHg 81%
    08:00 +22°C° 0 mm 1 m/S 760 mmHg 75%
    09:00 +24°C° 0 mm 1 m/S 760 mmHg 69%
    10:00 +26°C° 0 mm 1 m/S 760 mmHg 64%
    11:00 +27°C° 0 mm 1 m/S 759 mmHg 59%
    12:00 +29°C° 0 mm 1 m/S 758 mmHg 54%
    13:00 +27°C° 0 mm 0 m/S 758 mmHg 51%
    14:00 +27°C° 0 mm 0 m/S 758 mmHg 49%
    15:00 +28°C° 0 mm 0 m/S 757 mmHg 47%
    16:00 +26°C° 0 mm 0 m/S 757 mmHg 52%
    17:00 +24°C° 0 mm 0 m/S 758 mmHg 57%
    18:00 +24°C° 0 mm 1 m/S 758 mmHg 63%
    19:00 +24°C° 0 mm 1 m/S 759 mmHg 65%
    20:00 +23°C° 0 mm 1 m/S 759 mmHg 68%
    21:00 +23°C° 0 mm 1 m/S 760 mmHg 71%
    22:00 +22°C° 0 mm 1 m/S 760 mmHg 72%
    23:00 +22°C° 0 mm 1 m/S 760 mmHg 73%

    25 November, Montag

    Zeit Temperatur Niederschläge Wind Luftdruck Luftfeuchtigkeit
    00:00 +21°C° 0 mm 1 m/S 759 mmHg 74%
    01:00 +21°C° 0 mm 1 m/S 759 mmHg 75%
    02:00 +20°C° 0 mm 1 m/S 759 mmHg 77%
    03:00 +20°C° 0 mm 1 m/S 759 mmHg 78%
    04:00 +20°C° 0 mm 1 m/S 759 mmHg 80%
    05:00 +19°C° 0 mm 1 m/S 759 mmHg 82%
    06:00 +19°C° 0 mm 1 m/S 760 mmHg 84%
    07:00 +21°C° 0 mm 1 m/S 760 mmHg 78%
    08:00 +23°C° 0 mm 1 m/S 761 mmHg 73%
    09:00 +24°C° 0 mm 1 m/S 761 mmHg 68%
    10:00 +26°C° 0 mm 1 m/S 761 mmHg 63%
    11:00 +28°C° 0 mm 1 m/S 760 mmHg 57%
    12:00 +29°C° 0 mm 1 m/S 759 mmHg 52%
    13:00 +29°C° 0 mm 1 m/S 759 mmHg 50%
    14:00 +30°C° 0 mm 1 m/S 758 mmHg 48%
    15:00 +28°C° 0 mm 0 m/S 758 mmHg 47%
    16:00 +26°C° 0 mm 0 m/S 758 mmHg 52%
    17:00 +24°C° 0 mm 0 m/S 758 mmHg 58%
    18:00 +25°C° 0 mm 1 m/S 759 mmHg 63%
    19:00 +24°C° 0 mm 1 m/S 759 mmHg 65%
    20:00 +22°C° 0 mm 0 m/S 760 mmHg 67%
    21:00 +21°C° 0 mm 0 m/S 760 mmHg 70%
    22:00 +23°C° 0 mm 1 m/S 760 mmHg 72%
    23:00 +22°C° 0 mm 1 m/S 760 mmHg 74%

    26 November, Dienstag

    Zeit Temperatur Niederschläge Wind Luftdruck Luftfeuchtigkeit
    00:00 +22°C° 0 mm 1 m/S 759 mmHg 76%
    01:00 +21°C° 0 mm 1 m/S 759 mmHg 78%
    02:00 +21°C° 0 mm 1 m/S 759 mmHg 80%
    03:00 +20°C° 0 mm 1 m/S 759 mmHg 83%
    04:00 +20°C° 0 mm 1 m/S 759 mmHg 85%
    05:00 +20°C° 0 mm 1 m/S 759 mmHg 87%
    06:00 +20°C° 0 mm 1 m/S 760 mmHg 89%
    07:00 +21°C° 0 mm 1 m/S 760 mmHg 84%
    08:00 +23°C° 0 mm 2 m/S 760 mmHg 78%
    09:00 +25°C° 0 mm 2 m/S 761 mmHg 72%
    10:00 +27°C° 0 mm 1 m/S 760 mmHg 66%
    11:00 +28°C° 0 mm 1 m/S 760 mmHg 60%
    12:00 +30°C° 0 mm 1 m/S 759 mmHg 54%
    13:00 +30°C° 0 mm 1 m/S 759 mmHg 52%
    14:00 +28°C° 0 mm 0 m/S 758 mmHg 51%
    15:00 +28°C° 0 mm 0 m/S 758 mmHg 49%
    16:00 +27°C° 0 mm 0 m/S 758 mmHg 54%
    17:00 +25°C° 0 mm 0 m/S 758 mmHg 60%
    18:00 +23°C° 0 mm 0 m/S 758 mmHg 66%
    19:00 +22°C° 0 mm 0 m/S 759 mmHg 68%
    20:00 +24°C° 0 mm 1 m/S 759 mmHg 70%
    21:00 +23°C° 0 mm 1 m/S 760 mmHg 72%
    22:00 +23°C° 0 mm 1 m/S 760 mmHg 75%
    23:00 +22°C° 0 mm 1 m/S 760 mmHg 77%
    Mehr zeigen